• In Netherlands
  • List of Countries
  • For 7 days
  • Water Temperature
  • Satellite Maps
  • Weather Map
  • Weather Widgets
  • user-avatar
    Login

    Hourly Weather Klagenfurt

    Today, 28 June, Wednesday

    Time Temperature Precipitation Wind Pressure Humidity
    00:00 +15°C° 0 mm 1 mps 685 mmHg 89%
    01:00 +14°C° 0 mm 1 mps 685 mmHg 90%
    02:00 +14°C° 0 mm 1 mps 684 mmHg 89%
    03:00 +14°C° 0 mm 1 mps 684 mmHg 89%
    04:00 +14°C° 0 mm 1 mps 684 mmHg 89%
    05:00 +16°C° 0.1 mm 1 mps 684 mmHg 84%
    06:00 +19°C° 0.1 mm 1 mps 684 mmHg 79%
    07:00 +20°C° 0.1 mm 2 mps 684 mmHg 74%
    08:00 +21°C° 0.2 mm 2 mps 684 mmHg 70%
    09:00 +23°C° 0.2 mm 2 mps 684 mmHg 67%
    10:00 +25°C° 0.2 mm 3 mps 684 mmHg 63%
    11:00 +25°C° 0.7 mm 3 mps 684 mmHg 63%
    12:00 +25°C° 0.7 mm 3 mps 684 mmHg 62%
    13:00 +26°C° 0.7 mm 3 mps 683 mmHg 61%
    14:00 +25°C° 0.8 mm 3 mps 683 mmHg 63%
    15:00 +25°C° 0.8 mm 3 mps 682 mmHg 66%
    16:00 +24°C° 0.8 mm 3 mps 682 mmHg 69%
    17:00 +22°C° 3.3 mm 3 mps 681 mmHg 77%
    18:00 +20°C° 3.3 mm 2 mps 681 mmHg 86%
    19:00 +18°C° 3.3 mm 2 mps 680 mmHg 94%
    20:00 +17°C° 2.6 mm 2 mps 680 mmHg 95%
    21:00 +17°C° 2.6 mm 2 mps 680 mmHg 96%
    22:00 +16°C° 2.6 mm 1 mps 679 mmHg 96%
    23:00 +16°C° 1.4 mm 1 mps 679 mmHg 96%

    Tomorrow, 29 June, Thursday

    Time Temperature Precipitation Wind Pressure Humidity
    00:00 +15°C° 1.4 mm 1 mps 679 mmHg 96%
    01:00 +15°C° 1.4 mm 1 mps 678 mmHg 96%
    02:00 +15°C° 0.6 mm 2 mps 678 mmHg 96%
    03:00 +15°C° 0.6 mm 2 mps 678 mmHg 96%
    04:00 +14°C° 0.6 mm 2 mps 678 mmHg 96%
    05:00 +15°C° 0.1 mm 2 mps 678 mmHg 94%
    06:00 +16°C° 0.1 mm 2 mps 679 mmHg 91%
    07:00 +17°C° 0.1 mm 3 mps 679 mmHg 89%
    08:00 +18°C° 0.2 mm 3 mps 680 mmHg 81%
    09:00 +19°C° 0.2 mm 4 mps 680 mmHg 73%
    10:00 +20°C° 0.2 mm 4 mps 681 mmHg 65%
    11:00 +21°C° 0.3 mm 4 mps 681 mmHg 63%
    12:00 +21°C° 0.3 mm 4 mps 681 mmHg 60%
    13:00 +22°C° 0.3 mm 5 mps 682 mmHg 58%
    14:00 +22°C° 0.1 mm 5 mps 682 mmHg 56%
    15:00 +22°C° 0.1 mm 5 mps 682 mmHg 53%
    16:00 +22°C° 0.1 mm 5 mps 682 mmHg 51%
    17:00 +21°C° 0.1 mm 4 mps 682 mmHg 56%
    18:00 +20°C° 0.1 mm 4 mps 682 mmHg 62%
    19:00 +19°C° 0.1 mm 3 mps 682 mmHg 67%
    20:00 +17°C° 0 mm 3 mps 682 mmHg 72%
    21:00 +16°C° 0 mm 2 mps 682 mmHg 76%
    22:00 +14°C° 0 mm 2 mps 683 mmHg 81%
    23:00 +14°C° 0 mm 2 mps 683 mmHg 82%

    Day after tomorrow, 30 June, Friday

    Time Temperature Precipitation Wind Pressure Humidity
    00:00 +13°C° 0 mm 2 mps 683 mmHg 83%
    01:00 +12°C° 0 mm 2 mps 683 mmHg 85%
    02:00 +12°C° 0 mm 2 mps 683 mmHg 86%
    03:00 +12°C° 0 mm 2 mps 683 mmHg 87%
    04:00 +12°C° 0 mm 2 mps 683 mmHg 89%
    05:00 +13°C° 0 mm 2 mps 684 mmHg 84%
    06:00 +15°C° 0 mm 2 mps 685 mmHg 78%
    07:00 +17°C° 0 mm 2 mps 686 mmHg 73%
    08:00 +18°C° 0 mm 3 mps 686 mmHg 65%
    09:00 +19°C° 0 mm 3 mps 687 mmHg 57%
    10:00 +21°C° 0 mm 4 mps 687 mmHg 49%
    11:00 +21°C° 0.1 mm 4 mps 687 mmHg 48%
    12:00 +21°C° 0.1 mm 4 mps 688 mmHg 47%
    13:00 +22°C° 0.1 mm 5 mps 688 mmHg 46%
    14:00 +21°C° 0 mm 4 mps 688 mmHg 47%
    15:00 +21°C° 0 mm 4 mps 688 mmHg 47%
    16:00 +21°C° 0 mm 4 mps 687 mmHg 48%
    17:00 +20°C° 0 mm 4 mps 687 mmHg 55%
    18:00 +18°C° 0 mm 3 mps 687 mmHg 63%
    19:00 +17°C° 0 mm 3 mps 687 mmHg 71%
    20:00 +16°C° 0.1 mm 2 mps 687 mmHg 76%
    21:00 +15°C° 0.1 mm 2 mps 687 mmHg 82%
    22:00 +14°C° 0.1 mm 2 mps 687 mmHg 87%
    23:00 +14°C° 0.3 mm 1 mps 687 mmHg 89%

    1 July, Saturday

    Time Temperature Precipitation Wind Pressure Humidity
    00:00 +13°C° 0.3 mm 1 mps 687 mmHg 92%
    01:00 +13°C° 0.3 mm 1 mps 687 mmHg 94%
    02:00 +13°C° 0.6 mm 1 mps 686 mmHg 94%
    03:00 +12°C° 0.6 mm 1 mps 686 mmHg 95%
    04:00 +12°C° 0.6 mm 1 mps 686 mmHg 96%
    05:00 +13°C° 0.2 mm 1 mps 686 mmHg 92%
    06:00 +14°C° 0.2 mm 1 mps 687 mmHg 89%
    07:00 +15°C° 0.2 mm 1 mps 687 mmHg 85%
    08:00 +18°C° 0.2 mm 1 mps 688 mmHg 74%
    09:00 +20°C° 0.2 mm 1 mps 688 mmHg 63%
    10:00 +22°C° 0.2 mm 1 mps 689 mmHg 52%
    11:00 +23°C° 0.1 mm 1 mps 689 mmHg 48%
    12:00 +23°C° 0.1 mm 2 mps 689 mmHg 44%
    13:00 +24°C° 0.1 mm 2 mps 689 mmHg 41%
    14:00 +24°C° 0.2 mm 2 mps 688 mmHg 43%
    15:00 +23°C° 0.2 mm 2 mps 688 mmHg 45%
    16:00 +23°C° 0.2 mm 2 mps 688 mmHg 48%
    17:00 +20°C° 0.4 mm 2 mps 688 mmHg 59%
    18:00 +20°C° 0.4 mm 1 mps 688 mmHg 69%
    19:00 +18°C° 0.4 mm 1 mps 688 mmHg 80%
    20:00 +15°C° 0.4 mm 1 mps 688 mmHg 84%
    21:00 +13°C° 0.4 mm 1 mps 688 mmHg 88%
    22:00 +12°C° 0.4 mm 1 mps 688 mmHg 92%
    23:00 +11°C° 0.4 mm 1 mps 688 mmHg 93%

    2 July, Sunday

    Time Temperature Precipitation Wind Pressure Humidity
    00:00 +11°C° 0.4 mm 1 mps 687 mmHg 93%
    01:00 +11°C° 0.4 mm 1 mps 687 mmHg 93%
    02:00 +10°C° 0 mm 1 mps 687 mmHg 93%
    03:00 +10°C° 0 mm 1 mps 687 mmHg 93%
    04:00 +9°C° 0 mm 1 mps 687 mmHg 93%
    05:00 +11°C° 0 mm 1 mps 688 mmHg 87%
    06:00 +13°C° 0 mm 1 mps 689 mmHg 82%
    07:00 +15°C° 0 mm 1 mps 689 mmHg 76%
    08:00 +18°C° 0.1 mm 1 mps 690 mmHg 68%
    09:00 +19°C° 0.1 mm 1 mps 690 mmHg 59%
    10:00 +21°C° 0.1 mm 1 mps 691 mmHg 51%
    11:00 +21°C° 0.2 mm 2 mps 691 mmHg 50%
    12:00 +21°C° 0.2 mm 2 mps 691 mmHg 49%
    13:00 +21°C° 0.2 mm 2 mps 691 mmHg 48%
    14:00 +21°C° 0.1 mm 2 mps 691 mmHg 48%
    15:00 +21°C° 0.1 mm 2 mps 691 mmHg 48%
    16:00 +21°C° 0.1 mm 2 mps 691 mmHg 48%
    17:00 +21°C° 0 mm 1 mps 690 mmHg 56%
    18:00 +19°C° 0 mm 1 mps 690 mmHg 64%
    19:00 +18°C° 0 mm 1 mps 690 mmHg 72%
    20:00 +15°C° 0 mm 1 mps 690 mmHg 78%
    21:00 +13°C° 0 mm 1 mps 690 mmHg 83%
    22:00 +11°C° 0 mm 1 mps 690 mmHg 88%
    23:00 +11°C° 0 mm 1 mps 690 mmHg 88%

    3 July, Monday

    Time Temperature Precipitation Wind Pressure Humidity
    00:00 +10°C° 0 mm 1 mps 690 mmHg 88%
    01:00 +10°C° 0 mm 1 mps 690 mmHg 88%
    02:00 +10°C° 0 mm 1 mps 689 mmHg 88%
    03:00 +10°C° 0 mm 1 mps 689 mmHg 88%
    04:00 +10°C° 0 mm 1 mps 689 mmHg 88%
    05:00 +12°C° 0 mm 1 mps 690 mmHg 82%
    06:00 +13°C° 0 mm 0 mps 691 mmHg 76%
    07:00 +15°C° 0 mm 0 mps 691 mmHg 70%
    08:00 +19°C° 0 mm 1 mps 691 mmHg 65%
    09:00 +20°C° 0 mm 1 mps 692 mmHg 61%
    10:00 +22°C° 0 mm 1 mps 692 mmHg 56%
    11:00 +23°C° 0.3 mm 1 mps 692 mmHg 55%
    12:00 +23°C° 0.3 mm 1 mps 692 mmHg 55%
    13:00 +24°C° 0.3 mm 1 mps 691 mmHg 54%
    14:00 +23°C° 0.5 mm 1 mps 691 mmHg 58%
    15:00 +23°C° 0.5 mm 1 mps 691 mmHg 61%
    16:00 +22°C° 0.5 mm 1 mps 690 mmHg 65%
    17:00 +19°C° 0.6 mm 0 mps 690 mmHg 73%
    18:00 +18°C° 0.6 mm 0 mps 690 mmHg 81%
    19:00 +17°C° 0.6 mm 0 mps 690 mmHg 88%
    20:00 +15°C° 0.7 mm 0 mps 690 mmHg 90%
    21:00 +14°C° 0.7 mm 1 mps 690 mmHg 91%
    22:00 +12°C° 0.7 mm 1 mps 689 mmHg 93%
    23:00 +12°C° 0.6 mm 1 mps 689 mmHg 93%
    Show more